Regional Weather Roundup
Issued by NWS

Home | Current Version | Previous Version | Graphics & Text | Print | Product List | Glossary On
Versions: 1 2 3 4 5 6 7 8 9 10 11 12 13 14 15 16 17 18 19 20 21 22 23 24 25 26 27 28
000
ASUS45 KTFX 181210
RWRMT
MONTANA REGIONAL WEATHER ROUNDUP
NATIONAL WEATHER SERVICE GREAT FALLS MT
600 AM MDT FRI AUG 18 2017

NOTE: "FAIR" INDICATES FEW OR NO CLOUDS BELOW 12000 FEET WITH NO
SIGNIFICANT WEATHER AND/OR OBSTRUCTIONS TO VISIBILITY.

MTZ001>007-043-181300-
WEST OF THE DIVIDE

CITY           SKY/WX    TMP DP  RH WIND       PRES   REMARKS
KALISPELL      CLEAR     45  42  89 W3        30.06S
MISSOULA       CLEAR     53  42  66 CALM      30.12R
BUTTE          CLEAR     40  33  76 SE3       30.22S
MULLAN PASS    CLEAR     54  34  46 VRB3      30.21F
ANACONDA         N/A     48  30  49 S5        30.18S
DEER LODGE       N/A     43  36  75 CALM      30.19S
EUREKA           N/A     48  41  76 MISG      30.03R
HAMILTON         N/A     55  36  47 S10       30.12S
LIBBY            N/A     46  43  87 CALM      30.05S
PLAINS           N/A     47  38  71 CALM      30.08R
RONAN            N/A     47  42  82 CALM      30.11R
$$

MTZ008-052>055-181300-
SOUTHWEST MONTANA

CITY           SKY/WX    TMP DP  RH WIND       PRES   REMARKS
BOZEMAN        CLEAR     47  39  74 SE6       30.15R
DILLON         CLEAR     45  36  70 SW10      30.18S
W YELLOWSTONE  CLOUDY    36  34  93 CALM      30.29S
ENNIS          CLOUDY    45  39  81 NE6       30.24R
THREE FORKS      N/A     43  37  79 CALM      30.12R
TWIN BRIDGES     N/A     44  34  68 CALM      30.15R
$$

MTZ009-010-012-014-046-048-049-054-181300-
EAST SLOPES AND CENTRAL MONTANA

CITY           SKY/WX    TMP DP  RH WIND       PRES   REMARKS
CUT BANK       CLEAR     56  40  55 NW5       30.02S
GREAT FALLS    CLEAR     58  36  43 SW13      30.04S
MALMSTROM AFB  CLEAR     55  39  54 SW7       30.04R
HELENA         CLOUDY    59  40  49 CALM      30.10S
AUGUSTA          N/A     54  36  51 W7        30.07S
BOWMANS CRNR     N/A     54  35  47 SW9       30.07R
CHOTEAU          N/A     57  37  47 S6        30.06S
FAIRFIELD        N/A     59  37  43 SW5       30.04S
POWER            N/A     51  35  53 SW6       30.03S
RAYNESFORD       N/A     51  37  57 CALM      30.07S
ULM              N/A     55  37  51 S3        30.05S
$$

MTZ011-013-016-021-045-047-050-051-181300-
NORTH CENTRAL MONTANA

CITY           SKY/WX    TMP DP  RH WIND       PRES   REMARKS
HAVRE          CLEAR     49  34  56 SW7       29.97S
LEWISTOWN      CLEAR     51  36  56 SE7       30.07R
N BAR RANCH      N/A     52  34  50 W7        30.11R
CHINOOK          N/A     48  43  81 CALM      29.97S
DENTON           N/A     51  36  55 S10       30.00S
GEYSER           N/A     59  35  41 SW14      30.05S
GRASS RANGE      N/A     55  34  45 SW6       30.01S
JUDITH GAP       N/A     53  33  46 S13       30.10S
WINIFRED       MOCLDY    61  35  37 W6        30.02S
$$

MTZ017>020-022>027-061-062-181300-
NORTHEAST MONTANA

CITY           SKY/WX    TMP DP  RH WIND       PRES   REMARKS
GLASGOW        CLEAR     55  47  74 E12       29.96S
JORDAN           N/A     48  33  56 CALM      29.99R
SIDNEY         CLOUDY    59  56  89 SW5       29.97R
WOLF POINT     CLEAR     51  46  83 SW3       29.99R
MALTA          CLOUDY    48  45  87 CALM      29.98R
PLENTYWOOD       N/A     55  48  76 CALM      29.98S
POPLAR           N/A     57  54  88 CALM      29.98S
SCOBEY           N/A     47  40  76 CALM      29.98S
$$

MTZ028>42-056>058-181300-
SOUTHCENTRAL AND SOUTHEAST MONTANA

CITY           SKY/WX    TMP DP  RH WIND       PRES   REMARKS
BAKER          CLEAR     50  44  80 SW5       30.02R
BILLINGS       PTCLDY    60  38  43 SW13      30.06R
LIVINGSTON     CLEAR     47  37  68 NW8       30.14R
MILES CITY     CLEAR     58  41  53 SE3       29.99R
BIG TIMBER     CLOUDY    54  37  54 W12       30.14S
EKALAKA          N/A     57  40  53 SE3       30.01R
HARLOWTON        N/A     50  35  55 MISG      30.09S
LAUREL           N/A     52  38  58 W5        30.05F
$$

REGIONAL REPORTS...DAKOTAS

CITY           SKY/WX    TMP DP  RH WIND       PRES   REMARKS
WILLISTON      MOCLDY    59  55  87 NE5       29.96R
MINOT          CLEAR     58  55  90 S3        29.91R
DICKINSON      LGT RAIN  56  52  86 W5        29.97R
BEACH          MOCLDY    50  50 100 CALM      30.03S
CROSBY           N/A     52  52 100 W7        29.96R
TIOGA            N/A     52  52 100 W6        29.98R
WATFORD CITY     N/A     52  52 100 CALM      29.96S
BISMARCK       CLEAR     58  54  86 NW8       29.91R
GRAND FORKS    PTCLDY    57  56  96 W6        29.84R
FARGO          CLOUDY    62  59  90 SE5       29.82F
BUFFALO SD       N/A     60  45  57 NW7       29.94R
RAPID CITY     PTCLDY    59  46  62 N13       30.01R
$$

REGIONAL REPORTS...WYOMING/IDAHO/WASHINGTON

CITY           SKY/WX    TMP DP  RH WIND       PRES   REMARKS
GILLETTE       CLEAR     59  43  55 W8        30.10R
SHERIDAN       CLEAR     52  39  61 CALM      30.09R
BUFFALO WY     CLEAR     58  34  40 W7        30.15R
CODY           CLEAR     57  40  52 CALM      30.17R
YELLOWSTONE LA   N/A     35  34  96 CALM      30.36S
IDAHO FALLS    CLEAR     52  42  69 S3        30.17R
SALMON         CLEAR     47  38  71 CALM      30.18R
BOISE          CLEAR     60  39  45 SE5       30.07R
SPOKANE        PTCLDY    59  40  49 SE12      30.04S
$$

REGIONAL REPORTS...ALBERTA

CITY           SKY/WX    TMP DP  RH WIND       PRES   REMARKS
EDMONTON       CLEAR     54  50  87 SW6       29.86F
CALGARY        CLEAR     50  43  76 N2        29.95S SMOKE
LETHBRIDGE     PTCLDY    55  41  58 SW8       29.94S
MEDICINE HAT   CLEAR     54  45  71 E6        29.91F
$$

REGIONAL REPORTS...SASKATCHEWAN

CITY           SKY/WX    TMP DP  RH WIND       PRES   REMARKS
SWIFT CURRENT  CLEAR     48  43  81 SW10      29.98R
REGINA         PTCLDY    45  43  93 W9        29.95R
SASKATOON      PTCLDY    48  46  93 SW7       29.93R
$$




USA.gov is the U.S. government's official web portal to all federal, state and local government web resources and services.